WUP902 KCMH-KOPF

Flight info

Callsign WUP902
Flight time 1h 35m
Altitude 39000
Route POBSE OHIOS HVQ/N0526F380 J85 SPA/N0521F390 QUIWE/N0526F380 Q93 FISHO/N0523F390 Q93 GURGE/N0526F380 Q93 PRMUS CUUDA3
Aircraft C750/M-SBDE3FGHRWXY/S

Departure

Time 2026-05-03 23:54
Airport John Glenn Columbus International Airport (KCMH)

Arrival

Time 2026-05-04 01:30
Airport Miami-Opa Locka Executive Airport (KOPF)
Time Latitude Longitude Altitude Speed Heading
2026-05-03 23:27 39.99665 -82.89001 817 ft 0 kts 274°
2026-05-03 23:48 39.99665 -82.89003 817 ft 1 kts 274°
2026-05-03 23:48 39.99662 -82.89022 817 ft 2 kts 229°
2026-05-03 23:48 39.99642 -82.89022 817 ft 5 kts 178°
2026-05-03 23:48 39.99614 -82.88995 816 ft 6 kts 110°
2026-05-03 23:49 39.99608 -82.88933 816 ft 8 kts 96°
2026-05-03 23:49 39.99583 -82.88895 815 ft 6 kts 175°
2026-05-03 23:49 39.99552 -82.88886 816 ft 4 kts 146°
2026-05-03 23:49 39.99537 -82.88828 816 ft 10 kts 94°
2026-05-03 23:50 39.99530 -82.88703 814 ft 17 kts 94°
2026-05-03 23:50 39.99521 -82.88526 814 ft 21 kts 94°
2026-05-03 23:50 39.99510 -82.88346 816 ft 19 kts 94°
2026-05-03 23:50 39.99501 -82.88183 816 ft 17 kts 93°
2026-05-03 23:51 39.99493 -82.88040 818 ft 14 kts 94°
2026-05-03 23:51 39.99487 -82.87932 821 ft 10 kts 94°
2026-05-03 23:51 39.99481 -82.87841 822 ft 11 kts 95°
2026-05-03 23:51 39.99435 -82.87790 821 ft 9 kts 181°
2026-05-03 23:52 39.99375 -82.87778 821 ft 9 kts 141°
2026-05-03 23:52 39.99361 -82.87712 821 ft 8 kts 94°
2026-05-03 23:52 39.99356 -82.87627 821 ft 12 kts 95°
2026-05-03 23:52 39.99349 -82.87499 821 ft 13 kts 95°
2026-05-03 23:53 39.99290 -82.87446 819 ft 11 kts 181°
2026-05-03 23:53 39.99218 -82.87453 818 ft 10 kts 185°
2026-05-03 23:53 39.99172 -82.87489 818 ft 7 kts 263°
2026-05-03 23:53 39.99177 -82.87579 817 ft 23 kts 274°
2026-05-03 23:54 39.99214 -82.88244 819 ft 118 kts 274°
2026-05-03 23:54 39.99285 -82.89440 1183 ft 137 kts 272°
2026-05-03 23:54 39.99372 -82.90717 1842 ft 145 kts 272°
2026-05-03 23:54 39.99485 -82.92030 2521 ft 149 kts 271°
2026-05-03 23:55 39.99615 -82.93468 2952 ft 172 kts 272°
2026-05-03 23:55 39.99759 -82.95149 3371 ft 201 kts 272°
2026-05-03 23:55 39.99786 -82.97078 3803 ft 227 kts 267°
2026-05-03 23:55 39.99860 -82.99242 4410 ft 244 kts 270°
2026-05-03 23:56 39.99915 -83.01444 5408 ft 245 kts 265°
2026-05-03 23:56 39.99338 -83.03509 6326 ft 249 kts 236°
2026-05-03 23:56 39.97929 -83.04888 7137 ft 266 kts 207°
2026-05-03 23:56 39.96053 -83.05131 8055 ft 284 kts 178°
2026-05-03 23:57 39.94130 -83.04209 8780 ft 302 kts 151°
2026-05-03 23:57 39.92609 -83.02263 9581 ft 313 kts 126°
2026-05-03 23:57 39.91737 -82.99646 10176 ft 320 kts 106°
2026-05-03 23:57 39.91116 -82.96826 10755 ft 327 kts 104°
2026-05-03 23:58 39.90527 -82.93918 11238 ft 337 kts 103°
2026-05-03 23:58 39.89962 -82.90928 11812 ft 342 kts 102°
2026-05-03 23:58 39.89422 -82.87866 12128 ft 357 kts 102°
2026-05-03 23:58 39.88868 -82.84594 12104 ft 380 kts 102°
2026-05-03 23:59 39.88162 -82.81257 12185 ft 395 kts 113°
2026-05-03 23:59 39.86563 -82.78362 12761 ft 389 kts 137°
2026-05-03 23:59 39.84332 -82.76495 13311 ft 383 kts 161°
2026-05-03 23:59 39.81747 -82.75809 13814 ft 377 kts 179°
2026-05-04 00:00 39.79138 -82.75655 14320 ft 377 kts 183°
2026-05-04 00:00 39.76488 -82.75530 14622 ft 384 kts 182°
2026-05-04 00:00 39.73820 -82.75140 15147 ft 386 kts 176°
2026-05-04 00:00 39.71193 -82.74140 15442 ft 399 kts 163°
2026-05-04 00:01 39.68633 -82.72756 15868 ft 403 kts 160°
2026-05-04 00:01 39.66074 -82.71278 16463 ft 402 kts 161°
2026-05-04 00:01 39.63440 -82.69994 16916 ft 403 kts 166°
2026-05-04 00:01 39.60753 -82.68891 17375 ft 407 kts 167°
2026-05-04 00:02 39.58062 -82.67667 17864 ft 412 kts 164°
2026-05-04 00:02 39.55410 -82.66302 18334 ft 416 kts 163°
2026-05-04 00:02 39.52692 -82.64953 18790 ft 418 kts 165°
2026-05-04 00:02 39.49944 -82.63694 19257 ft 421 kts 166°
2026-05-04 00:03 39.47164 -82.62462 19685 ft 422 kts 169°
2026-05-04 00:03 39.44297 -82.61781 20115 ft 416 kts 181°
2026-05-04 00:03 39.30519 -82.62766 21626 ft 413 kts 197°
2026-05-04 00:03 39.22422 -82.63610 22991 ft 425 kts 191°
2026-05-04 00:04 38.97467 -82.66014 26144 ft 437 kts 193°
2026-05-04 00:04 38.73455 -82.53708 30536 ft 516 kts 129°
2026-05-04 00:04 38.58203 -82.21266 32956 ft 529 kts 131°
2026-05-04 00:04 38.41938 -81.89962 36594 ft 517 kts 129°
2026-05-04 00:05 38.21261 -81.67049 38808 ft 476 kts 163°
2026-05-04 00:05 37.96935 -81.64158 39116 ft 432 kts 203°
2026-05-04 00:05 37.75333 -81.78525 39059 ft 466 kts 211°
2026-05-04 00:05 37.48734 -81.82153 39071 ft 500 kts 180°
2026-05-04 00:06 37.21552 -81.82864 39040 ft 491 kts 191°
2026-05-04 00:06 36.94839 -81.83976 39045 ft 486 kts 191°
2026-05-04 00:06 36.67225 -81.85044 39077 ft 487 kts 188°
2026-05-04 00:07 36.56585 -81.85654 39071 ft 489 kts 189°
2026-05-04 00:07 36.46707 -81.86076 39076 ft 489 kts 190°
2026-05-04 00:08 36.28568 -81.86941 39055 ft 490 kts 190°
2026-05-04 00:08 36.14981 -81.87564 39052 ft 490 kts 189°
2026-05-04 00:09 36.04662 -81.88039 39055 ft 491 kts 189°
2026-05-04 00:09 35.97817 -81.88366 39058 ft 491 kts 189°
2026-05-04 00:10 35.91014 -81.88677 39056 ft 492 kts 189°
2026-05-04 00:10 35.84161 -81.88997 39072 ft 491 kts 189°
2026-05-04 00:11 35.77356 -81.89311 39055 ft 491 kts 189°
2026-05-04 00:11 35.70499 -81.89628 39048 ft 491 kts 189°
2026-05-04 00:12 35.63657 -81.89944 39046 ft 492 kts 189°
2026-05-04 00:12 35.56863 -81.90256 39060 ft 491 kts 189°
2026-05-04 00:13 35.50017 -81.90571 39062 ft 491 kts 189°
2026-05-04 00:13 35.10898 -81.92359 39061 ft 486 kts 189°
2026-05-04 00:14 34.83710 -81.86479 39073 ft 517 kts 162°
2026-05-04 00:14 34.57960 -81.74810 39103 ft 489 kts 175°
2026-05-04 00:14 34.05578 -81.54425 39105 ft 497 kts 171°
2026-05-04 00:15 33.78988 -81.47749 39107 ft 468 kts 187°
2026-05-04 00:15 33.65522 -81.46470 39099 ft 484 kts 179°
2026-05-04 00:15 33.58903 -81.45193 39099 ft 483 kts 182°
2026-05-04 00:16 33.52171 -81.44536 39100 ft 488 kts 182°
2026-05-04 00:16 33.45420 -81.43482 39101 ft 492 kts 181°
2026-05-04 00:17 33.38611 -81.42660 39087 ft 491 kts 182°
2026-05-04 00:17 33.31802 -81.41706 39088 ft 491 kts 182°
2026-05-04 00:18 33.25064 -81.40464 39084 ft 497 kts 176°
2026-05-04 00:18 33.18285 -81.38756 39113 ft 496 kts 177°
2026-05-04 00:19 33.11561 -81.37047 39106 ft 497 kts 176°
2026-05-04 00:19 33.04778 -81.35327 39087 ft 496 kts 177°
2026-05-04 00:20 32.98019 -81.33622 39068 ft 497 kts 177°
2026-05-04 00:20 32.91309 -81.31923 39084 ft 495 kts 177°
2026-05-04 00:21 32.84542 -81.30221 39090 ft 495 kts 177°
2026-05-04 00:21 32.77833 -81.28530 39101 ft 495 kts 177°
2026-05-04 00:22 32.71063 -81.26831 39089 ft 496 kts 178°
2026-05-04 00:22 32.64329 -81.25139 39096 ft 495 kts 178°
2026-05-04 00:23 32.57607 -81.23457 39089 ft 496 kts 178°
2026-05-04 00:23 32.50817 -81.21758 39090 ft 495 kts 178°
2026-05-04 00:24 32.47470 -81.21170 39084 ft 484 kts 185°
2026-05-04 00:24 32.44125 -81.21005 39097 ft 479 kts 188°
2026-05-04 00:24 32.37502 -81.20780 39107 ft 478 kts 188°
2026-05-04 00:25 32.30835 -81.20548 39109 ft 479 kts 188°
2026-05-04 00:25 32.24157 -81.20324 39123 ft 480 kts 188°
2026-05-04 00:26 32.17458 -81.20091 39125 ft 481 kts 188°
2026-05-04 00:26 32.10796 -81.19866 39119 ft 482 kts 188°
2026-05-04 00:27 32.04090 -81.19635 39074 ft 482 kts 188°
2026-05-04 00:27 31.97385 -81.19408 39073 ft 480 kts 188°
2026-05-04 00:28 31.90737 -81.19181 39086 ft 479 kts 188°
2026-05-04 00:28 31.85190 -81.18993 39098 ft 477 kts 188°
2026-05-04 00:29 31.78559 -81.18769 39097 ft 475 kts 188°
2026-05-04 00:29 31.71994 -81.18547 39096 ft 474 kts 188°
2026-05-04 00:30 31.65385 -81.18323 39096 ft 472 kts 189°
2026-05-04 00:30 31.58845 -81.18103 39100 ft 471 kts 189°
2026-05-04 00:31 31.52293 -81.17882 39102 ft 471 kts 189°
2026-05-04 00:31 31.45736 -81.17661 39113 ft 470 kts 189°
2026-05-04 00:32 31.39228 -81.17443 39111 ft 469 kts 189°
2026-05-04 00:32 31.32697 -81.17223 39115 ft 469 kts 189°
2026-05-04 00:33 31.22909 -81.16895 39112 ft 468 kts 189°
2026-05-04 00:34 31.16422 -81.16679 39112 ft 467 kts 189°
2026-05-04 00:34 31.09913 -81.16461 39115 ft 466 kts 189°
2026-05-04 00:35 31.03446 -81.16245 39116 ft 465 kts 189°
2026-05-04 00:35 30.96966 -81.16030 39117 ft 464 kts 189°
2026-05-04 00:36 30.90551 -81.15816 39121 ft 463 kts 189°
2026-05-04 00:36 30.84090 -81.15602 39119 ft 463 kts 189°
2026-05-04 00:37 30.77679 -81.15389 39120 ft 462 kts 189°
2026-05-04 00:37 30.71229 -81.15175 39122 ft 461 kts 189°
2026-05-04 00:38 30.64844 -81.14964 39122 ft 461 kts 190°
2026-05-04 00:38 30.58425 -81.14752 39123 ft 460 kts 190°
2026-05-04 00:39 30.52067 -81.14542 39119 ft 459 kts 190°
2026-05-04 00:39 30.45678 -81.14331 39120 ft 458 kts 190°
2026-05-04 00:40 30.39301 -81.14122 39115 ft 457 kts 190°
2026-05-04 00:40 30.32935 -81.13912 39117 ft 456 kts 190°
2026-05-04 00:41 30.26606 -81.13705 39119 ft 456 kts 190°
2026-05-04 00:41 30.20244 -81.13497 39120 ft 456 kts 190°
2026-05-04 00:42 30.13941 -81.13290 39120 ft 456 kts 190°
2026-05-04 00:42 30.07583 -81.13082 39123 ft 455 kts 190°
2026-05-04 00:43 30.01246 -81.12875 39123 ft 455 kts 190°
2026-05-04 00:43 29.94946 -81.12670 39121 ft 455 kts 190°
2026-05-04 00:44 29.88603 -81.12463 39125 ft 455 kts 190°
2026-05-04 00:44 29.82210 -81.11682 39112 ft 472 kts 181°
2026-05-04 00:44 29.79027 -81.10711 39109 ft 484 kts 175°
2026-05-04 00:45 29.75835 -81.09313 39110 ft 494 kts 170°
2026-05-04 00:45 29.69550 -81.06209 39118 ft 493 kts 170°
2026-05-04 00:46 29.63227 -81.03131 39107 ft 493 kts 170°
2026-05-04 00:46 29.56940 -81.00042 39101 ft 492 kts 171°
2026-05-04 00:47 29.50622 -80.96966 39097 ft 492 kts 171°
2026-05-04 00:47 29.44322 -80.93887 39096 ft 491 kts 171°
2026-05-04 00:48 29.38027 -80.90824 39094 ft 491 kts 171°
2026-05-04 00:48 29.31774 -80.87780 39087 ft 490 kts 171°
2026-05-04 00:49 29.25469 -80.84719 39089 ft 491 kts 171°
2026-05-04 00:49 29.19167 -80.81661 39091 ft 491 kts 171°
2026-05-04 00:50 29.12904 -80.78627 39089 ft 492 kts 171°
2026-05-04 00:50 29.06586 -80.75570 39088 ft 493 kts 171°
2026-05-04 00:51 29.00248 -80.72507 39086 ft 493 kts 171°
2026-05-04 00:51 28.93944 -80.69561 39093 ft 490 kts 173°
2026-05-04 00:52 28.87569 -80.66722 39082 ft 492 kts 172°
2026-05-04 00:52 28.81212 -80.63869 39077 ft 493 kts 172°
2026-05-04 00:53 28.74785 -80.61005 39056 ft 495 kts 172°
2026-05-04 00:53 28.68390 -80.58149 39057 ft 496 kts 172°
2026-05-04 00:54 28.61940 -80.55278 39053 ft 496 kts 172°
2026-05-04 00:54 28.55574 -80.52445 39040 ft 497 kts 172°
2026-05-04 00:55 28.49098 -80.49569 39034 ft 497 kts 172°
2026-05-04 00:55 28.42666 -80.46715 39036 ft 498 kts 172°
2026-05-04 00:56 28.36199 -80.43849 39039 ft 498 kts 172°
2026-05-04 00:56 28.29752 -80.40997 39037 ft 499 kts 172°
2026-05-04 00:57 28.23300 -80.38146 39032 ft 500 kts 172°
2026-05-04 00:57 28.16800 -80.35277 39032 ft 500 kts 171°
2026-05-04 00:58 28.10333 -80.32426 39037 ft 501 kts 171°
2026-05-04 00:58 28.03795 -80.29827 39042 ft 497 kts 173°
2026-05-04 00:59 27.97249 -80.27267 39074 ft 497 kts 173°
2026-05-04 00:59 27.90717 -80.24717 38832 ft 504 kts 173°
2026-05-04 00:59 27.87371 -80.23425 38080 ft 509 kts 173°
2026-05-04 01:00 27.84004 -80.22102 37405 ft 513 kts 172°
2026-05-04 01:00 27.80622 -80.20774 36725 ft 514 kts 172°
2026-05-04 01:00 27.77232 -80.19458 36044 ft 515 kts 172°
2026-05-04 01:00 27.73874 -80.18158 35419 ft 515 kts 172°
2026-05-04 01:01 27.70484 -80.16838 34826 ft 516 kts 171°
2026-05-04 01:01 27.67085 -80.15513 34235 ft 516 kts 171°
2026-05-04 01:01 27.63683 -80.14193 33583 ft 517 kts 171°
2026-05-04 01:01 27.60272 -80.12813 32920 ft 523 kts 169°
2026-05-04 01:02 27.56891 -80.11394 32299 ft 502 kts 169°
2026-05-04 01:02 27.53747 -80.10100 31680 ft 473 kts 170°
2026-05-04 01:02 27.50708 -80.08871 31067 ft 456 kts 170°
2026-05-04 01:02 27.47735 -80.07666 30470 ft 458 kts 169°
2026-05-04 01:03 27.44734 -80.06431 29874 ft 457 kts 168°
2026-05-04 01:03 27.41754 -80.05188 29228 ft 453 kts 168°
2026-05-04 01:03 27.38804 -80.03976 28610 ft 448 kts 169°
2026-05-04 01:03 27.35845 -80.03006 27974 ft 440 kts 174°
2026-05-04 01:04 27.32919 -80.02146 27402 ft 437 kts 174°
2026-05-04 01:04 27.30000 -80.01266 26842 ft 425 kts 173°
2026-05-04 01:04 27.27221 -80.00385 26279 ft 407 kts 173°
2026-05-04 01:04 27.24520 -79.99489 25711 ft 402 kts 171°
2026-05-04 01:05 27.21858 -79.98534 25155 ft 399 kts 172°
2026-05-04 01:05 27.19210 -79.97592 24633 ft 398 kts 171°
2026-05-04 01:05 27.16574 -79.96639 24125 ft 397 kts 171°
2026-05-04 01:05 27.13981 -79.95697 23633 ft 396 kts 171°
2026-05-04 01:06 27.11362 -79.94752 23061 ft 393 kts 171°
2026-05-04 01:06 27.08764 -79.93818 22508 ft 390 kts 171°
2026-05-04 01:06 27.06190 -79.92854 21951 ft 390 kts 168°
2026-05-04 01:06 27.03658 -79.91805 21425 ft 386 kts 168°
2026-05-04 01:07 27.01131 -79.90804 20909 ft 383 kts 168°
2026-05-04 01:07 26.98625 -79.89813 20411 ft 381 kts 168°
2026-05-04 01:07 26.96170 -79.88816 19936 ft 379 kts 167°
2026-05-04 01:07 26.93689 -79.87805 19442 ft 376 kts 167°
2026-05-04 01:08 26.91229 -79.86816 18976 ft 373 kts 167°
2026-05-04 01:08 26.88779 -79.85835 18500 ft 371 kts 167°
2026-05-04 01:08 26.86386 -79.84870 18013 ft 369 kts 167°
2026-05-04 01:08 26.83978 -79.83898 17485 ft 366 kts 166°
2026-05-04 01:09 26.81614 -79.82944 17001 ft 353 kts 166°
2026-05-04 01:09 26.79321 -79.82021 16512 ft 347 kts 166°
2026-05-04 01:09 26.77048 -79.81114 16025 ft 345 kts 166°
2026-05-04 01:09 26.74815 -79.80218 15578 ft 343 kts 166°
2026-05-04 01:10 26.72566 -79.79314 15120 ft 341 kts 166°
2026-05-04 01:10 26.70279 -79.78801 14568 ft 330 kts 183°
2026-05-04 01:10 26.68066 -79.79101 14079 ft 319 kts 199°
2026-05-04 01:10 26.65991 -79.79921 13633 ft 314 kts 205°
2026-05-04 01:11 26.63937 -79.80774 13183 ft 314 kts 204°
2026-05-04 01:11 26.61883 -79.81606 12730 ft 313 kts 204°
2026-05-04 01:11 26.59834 -79.82435 12301 ft 311 kts 204°
2026-05-04 01:11 26.57825 -79.83256 11870 ft 309 kts 204°
2026-05-04 01:12 26.55850 -79.84060 11407 ft 297 kts 204°
2026-05-04 01:12 26.53967 -79.84941 10966 ft 292 kts 207°
2026-05-04 01:12 26.52097 -79.85821 10529 ft 292 kts 206°
2026-05-04 01:12 26.50213 -79.86684 10116 ft 289 kts 206°
2026-05-04 01:13 26.48390 -79.87535 9679 ft 279 kts 206°
2026-05-04 01:13 26.46629 -79.88370 9239 ft 276 kts 207°
2026-05-04 01:13 26.44864 -79.89203 8797 ft 275 kts 206°
2026-05-04 01:13 26.43099 -79.90030 8351 ft 275 kts 206°
2026-05-04 01:14 26.41339 -79.90854 7989 ft 270 kts 206°
2026-05-04 01:14 26.39623 -79.91659 8005 ft 269 kts 206°
2026-05-04 01:14 26.37939 -79.92503 7992 ft 270 kts 211°
2026-05-04 01:14 26.36311 -79.93566 7998 ft 271 kts 214°
2026-05-04 01:15 26.34686 -79.94621 8017 ft 271 kts 213°
2026-05-04 01:15 26.33046 -79.95665 8016 ft 271 kts 213°
2026-05-04 01:15 26.31409 -79.96711 8006 ft 271 kts 213°
2026-05-04 01:15 26.29764 -79.97769 7998 ft 271 kts 213°
2026-05-04 01:16 26.28684 -79.98464 8007 ft 271 kts 213°
2026-05-04 01:16 26.27036 -79.99521 8005 ft 272 kts 213°
2026-05-04 01:16 26.25402 -80.00569 8010 ft 272 kts 213°
2026-05-04 01:16 26.23761 -80.01624 8015 ft 272 kts 213°
2026-05-04 01:17 26.22113 -80.02684 8007 ft 272 kts 213°
2026-05-04 01:17 26.20491 -80.03726 8007 ft 272 kts 213°
2026-05-04 01:17 26.18892 -80.04841 7974 ft 270 kts 221°
2026-05-04 01:17 26.17748 -80.06464 7980 ft 267 kts 243°
2026-05-04 01:18 26.17097 -80.08396 8013 ft 266 kts 252°
2026-05-04 01:18 26.16519 -80.10367 8084 ft 267 kts 252°
2026-05-04 01:18 26.15933 -80.12301 8131 ft 267 kts 252°
2026-05-04 01:18 26.15336 -80.14264 8192 ft 267 kts 252°
2026-05-04 01:19 26.14998 -80.16295 8165 ft 267 kts 268°
2026-05-04 01:19 26.15034 -80.18356 7950 ft 269 kts 270°
2026-05-04 01:19 26.15052 -80.20441 7723 ft 268 kts 269°
2026-05-04 01:19 26.15051 -80.22509 7486 ft 267 kts 269°
2026-05-04 01:20 26.15057 -80.24577 7243 ft 265 kts 269°
2026-05-04 01:20 26.15068 -80.26606 6990 ft 264 kts 269°
2026-05-04 01:20 26.15077 -80.28649 6765 ft 263 kts 269°
2026-05-04 01:20 26.15085 -80.30697 6535 ft 263 kts 269°
2026-05-04 01:21 26.15093 -80.32735 6300 ft 263 kts 269°
2026-05-04 01:21 26.15101 -80.34767 6053 ft 262 kts 269°
2026-05-04 01:21 26.15174 -80.36801 5810 ft 263 kts 272°
2026-05-04 01:21 26.15289 -80.38811 5572 ft 262 kts 273°
2026-05-04 01:22 26.15408 -80.40838 5355 ft 258 kts 273°
2026-05-04 01:22 26.15518 -80.42789 5190 ft 238 kts 272°
2026-05-04 01:22 26.15147 -80.44459 4820 ft 221 kts 238°
2026-05-04 01:22 26.13928 -80.45422 4388 ft 224 kts 198°
2026-05-04 01:23 26.12385 -80.45464 4221 ft 220 kts 178°
2026-05-04 01:23 26.10835 -80.45325 4137 ft 223 kts 178°
2026-05-04 01:23 26.09281 -80.45195 4061 ft 223 kts 178°
2026-05-04 01:23 26.07747 -80.45068 3975 ft 224 kts 178°
2026-05-04 01:24 26.06194 -80.44940 3879 ft 223 kts 178°
2026-05-04 01:24 26.04640 -80.44818 3757 ft 223 kts 178°
2026-05-04 01:24 26.03087 -80.44699 3626 ft 223 kts 178°
2026-05-04 01:24 26.01549 -80.44585 3447 ft 224 kts 178°
2026-05-04 01:25 25.99992 -80.44476 3233 ft 223 kts 178°
2026-05-04 01:25 25.98439 -80.44372 2991 ft 222 kts 178°
2026-05-04 01:25 25.96963 -80.43926 2645 ft 224 kts 151°
2026-05-04 01:25 25.95731 -80.42906 2556 ft 219 kts 142°
2026-05-04 01:26 25.94603 -80.41926 2501 ft 186 kts 143°
2026-05-04 01:26 25.93622 -80.41079 2374 ft 182 kts 142°
2026-05-04 01:26 25.92653 -80.40248 2050 ft 164 kts 142°
2026-05-04 01:26 25.91799 -80.39531 1683 ft 147 kts 142°
2026-05-04 01:27 25.91011 -80.38881 1412 ft 133 kts 142°
2026-05-04 01:27 25.90661 -80.37994 1049 ft 132 kts 81°
2026-05-04 01:27 25.90944 -80.37105 1037 ft 119 kts 76°
2026-05-04 01:27 25.90926 -80.36177 1062 ft 123 kts 89°
2026-05-04 01:28 25.90957 -80.35221 1135 ft 125 kts 87°
2026-05-04 01:28 25.91001 -80.34220 996 ft 132 kts 86°
2026-05-04 01:28 25.91053 -80.33226 805 ft 128 kts 85°
2026-05-04 01:28 25.91101 -80.32245 644 ft 123 kts 85°
2026-05-04 01:29 25.91145 -80.31306 481 ft 120 kts 85°
2026-05-04 01:29 25.91187 -80.30372 305 ft 119 kts 84°
2026-05-04 01:29 25.91232 -80.29480 155 ft 117 kts 84°
2026-05-04 01:29 25.91279 -80.28580 26 ft 113 kts 84°
2026-05-04 01:30 25.91314 -80.27858 11 ft 63 kts 87°
2026-05-04 01:30 25.91329 -80.27551 13 ft 27 kts 87°
2026-05-04 01:30 25.91338 -80.27373 14 ft 12 kts 86°
2026-05-04 01:30 25.91307 -80.27316 14 ft 9 kts 165°
2026-05-04 01:31 25.91261 -80.27331 13 ft 0 kts 212°
2026-05-04 01:32 25.91246 -80.27341 13 ft 4 kts 210°
2026-05-04 01:32 25.91216 -80.27347 13 ft 4 kts 158°
2026-05-04 01:32 25.91203 -80.27319 13 ft 5 kts 96°
2026-05-04 01:33 25.91205 -80.27272 13 ft 6 kts 87°
2026-05-04 01:33 25.91208 -80.27225 13 ft 6 kts 87°
2026-05-04 01:33 25.91210 -80.27176 13 ft 6 kts 86°
2026-05-04 01:33 25.91212 -80.27127 13 ft 6 kts 86°
2026-05-04 01:34 25.91215 -80.27077 13 ft 7 kts 87°
2026-05-04 01:34 25.91207 -80.27029 13 ft 6 kts 133°
2026-05-04 01:34 25.91170 -80.27016 13 ft 5 kts 143°
2026-05-04 01:34 25.91163 -80.26981 13 ft 5 kts 88°
2026-05-04 01:35 25.91165 -80.26944 13 ft 5 kts 87°
2026-05-04 01:35 25.91167 -80.26903 13 ft 6 kts 86°
2026-05-04 01:35 25.91170 -80.26846 13 ft 9 kts 87°
2026-05-04 01:35 25.91172 -80.26788 13 ft 6 kts 86°
2026-05-04 01:36 25.91145 -80.26756 13 ft 7 kts 179°
2026-05-04 01:36 25.91111 -80.26782 13 ft 5 kts 250°
2026-05-04 01:36 25.91104 -80.26817 13 ft 5 kts 245°
2026-05-04 01:36 25.91080 -80.26847 13 ft 3 kts 223°
2026-05-04 01:37 25.91057 -80.26856 12 ft 1 kts 153°
2026-05-04 01:37 25.91058 -80.26842 13 ft 2 kts 61°
2026-05-04 01:37 25.91069 -80.26831 13 ft 1 kts 44°